Notices

What's New in latest Release from April 7th, 2021:

- Updated Glossary, including Speed of Maximum Gust, and Total Hourly Precipitation

- Updated national and regional climate services offices contacts and prices information

- Addition of station inventory lists for 1981-2010, 1971-2000, and 1961-1990 Normals.

If you haven't already, please take our survey and provide feedback about our website: https://eccc.sondage-survey.ca/f/LanguageSelection.aspx?s=442ca660-fcf1-47c0-95a9-59707d6fd709

Hourly Data Report for August 18, 2019

TORONTO CITY
ONTARIO
Current Station Operator: ECCC - MSC

43°40'00.000" N
79°24'00.000" W
112.50 m
6158355
71508
XTO

Download Data

Hourly Data (August 2019)
Hourly Data Report for August 18, 2019
TIME
LST
Temp Definition
°C
Dew Point Definition
°C
Rel Hum Definition
%
Precip. Amount Definition
mm

Wind Dir Definition
10's deg

Wind Spd Definition
km/h
Visibility Definition
km
Stn Press Definition
kPa
Hmdx Definition


Wind Chill Definition


Weather Definition


00:00 21.3 17.8 80 0.0       100.06 27   LegendNANA
01:00 20.1 17.5 85 0.0       100.04 26   LegendNANA
02:00 20.7 18.3 86 0.0       100.04 27   LegendNANA
03:00 20.4 18.0 87 0.0       100.03 26   LegendNANA
04:00 20.5 18.2 87 0.0       100.03 27   LegendNANA
05:00 20.3 18.1 87 0.0       100.00 26   LegendNANA
06:00 19.9 18.2 90 0.8       100.06     LegendNANA
07:00 20.1 18.4 90 0.0       100.04 26   LegendNANA
08:00 21.1 18.9 87 0.0       100.01 28   LegendNANA
09:00 20.8 17.8 83 0.0       100.00 27   LegendNANA
10:00 23.1 17.5 71 0.0       100.00 29   LegendNANA
11:00 22.3 17.7 75 0.0       100.07 28   LegendNANA
12:00 23.7 18.9 75 0.0       99.98 30   LegendNANA
13:00 25.9 18.2 62 0.0       99.98 32   LegendNANA
14:00 25.9 18.4 63 0.0       99.92 32   LegendNANA
15:00 26.2 18.6 63 0.0       99.83 33   LegendNANA
16:00 24.9 19.3 71 0.0       99.84 32   LegendNANA
17:00 24.7 19.5 73 0.0       99.87 32   LegendNANA
18:00 23.5 20.6 84 1.8       99.64 32   LegendNANA
19:00 22.8 20.1 85 0.0       99.65 30   LegendNANA
20:00 22.2 20.1 88 0.0       99.67 30   LegendNANA
21:00 21.9 19.9 89 0.0       99.62 29   LegendNANA
22:00 22.3 19.2 83 0.0       99.70 29   LegendNANA
23:00 22.6 19.6 83 0.0       99.77 30   LegendNANA

Notes on Data Quality.

Legend

  • E = Estimated
  • M = Missing
  • NA = Not Available*
  • [empty] = Indicates an unobserved value
Date modified: